HAL932 PHNL-PHKO

Flight info

Callsign HAL932
Flight time 0h 27m
Altitude 17000
Route PALAY3 LNY VECKI9
Aircraft A332/H-SDE3GHIJ2J3J5M1RVWXY/LB2D1

Departure

Time 2026-05-08 02:43
Airport Daniel K. Inouye International Airport (PHNL)

Arrival

Time 2026-05-08 03:11
Airport Ellison Onizuka Kona International Airport at Keāhole (PHKO)
Time Latitude Longitude Altitude Speed Heading
2026-05-08 02:23 21.32868 -157.92607 28 ft 0 kts
2026-05-08 02:30 21.32853 -157.92607 27 ft 3 kts 358°
2026-05-08 02:30 21.32833 -157.92606 27 ft 3 kts 355°
2026-05-08 02:30 21.32813 -157.92603 26 ft 3 kts 349°
2026-05-08 02:30 21.32793 -157.92598 26 ft 3 kts 335°
2026-05-08 02:31 21.32778 -157.92587 26 ft 3 kts 300°
2026-05-08 02:31 21.32774 -157.92578 25 ft 0 kts 270°
2026-05-08 02:33 21.32774 -157.92579 25 ft 1 kts 270°
2026-05-08 02:34 21.32774 -157.92595 28 ft 3 kts 270°
2026-05-08 02:34 21.32774 -157.92627 28 ft 5 kts 270°
2026-05-08 02:34 21.32774 -157.92676 28 ft 8 kts 270°
2026-05-08 02:34 21.32765 -157.92739 28 ft 9 kts 255°
2026-05-08 02:35 21.32748 -157.92808 28 ft 11 kts 259°
2026-05-08 02:35 21.32744 -157.92895 28 ft 13 kts 270°
2026-05-08 02:35 21.32744 -157.92996 28 ft 14 kts 270°
2026-05-08 02:35 21.32744 -157.93109 28 ft 16 kts 270°
2026-05-08 02:36 21.32744 -157.93237 28 ft 18 kts 270°
2026-05-08 02:36 21.32743 -157.93377 28 ft 20 kts 270°
2026-05-08 02:36 21.32743 -157.93529 28 ft 21 kts 270°
2026-05-08 02:36 21.32743 -157.93692 28 ft 22 kts 270°
2026-05-08 02:37 21.32742 -157.93862 28 ft 23 kts 270°
2026-05-08 02:37 21.32743 -157.93980 28 ft 12 kts 270°
2026-05-08 02:37 21.32726 -157.94057 28 ft 11 kts 235°
2026-05-08 02:37 21.32661 -157.94109 28 ft 13 kts 210°
2026-05-08 02:38 21.32579 -157.94159 28 ft 15 kts 209°
2026-05-08 02:38 21.32484 -157.94215 28 ft 17 kts 209°
2026-05-08 02:38 21.32377 -157.94278 28 ft 18 kts 209°
2026-05-08 02:38 21.32260 -157.94348 28 ft 20 kts 209°
2026-05-08 02:39 21.32132 -157.94424 28 ft 22 kts 209°
2026-05-08 02:39 21.31995 -157.94507 28 ft 23 kts 209°
2026-05-08 02:39 21.31848 -157.94595 28 ft 25 kts 209°
2026-05-08 02:39 21.31748 -157.94649 28 ft 14 kts 198°
2026-05-08 02:40 21.31648 -157.94659 28 ft 16 kts 174°
2026-05-08 02:40 21.31532 -157.94645 28 ft 18 kts 173°
2026-05-08 02:40 21.31404 -157.94628 28 ft 19 kts 173°
2026-05-08 02:40 21.31264 -157.94609 28 ft 21 kts 173°
2026-05-08 02:41 21.31115 -157.94590 28 ft 22 kts 173°
2026-05-08 02:41 21.31003 -157.94576 28 ft 16 kts 173°
2026-05-08 02:41 21.30886 -157.94572 28 ft 17 kts 179°
2026-05-08 02:41 21.30765 -157.94571 28 ft 15 kts 180°
2026-05-08 02:42 21.30702 -157.94571 27 ft 6 kts 178°
2026-05-08 02:42 21.30681 -157.94542 28 ft 8 kts 93°
2026-05-08 02:42 21.30682 -157.94399 32 ft 42 kts 89°
2026-05-08 02:42 21.30681 -157.93761 30 ft 128 kts 89°
2026-05-08 02:43 21.30672 -157.92535 218 ft 189 kts 86°
2026-05-08 02:43 21.30545 -157.91131 1476 ft 196 kts 106°
2026-05-08 02:43 21.29722 -157.89889 2766 ft 217 kts 134°
2026-05-08 02:43 21.28390 -157.89100 3605 ft 225 kts 159°
2026-05-08 02:44 21.26802 -157.88781 4256 ft 238 kts 169°
2026-05-08 02:44 21.25115 -157.88507 4719 ft 257 kts 170°
2026-05-08 02:44 21.23316 -157.88100 5307 ft 269 kts 158°
2026-05-08 02:44 21.21788 -157.86949 6159 ft 273 kts 130°
2026-05-08 02:45 21.20860 -157.85173 6992 ft 277 kts 110°
2026-05-08 02:45 21.20058 -157.83276 7797 ft 283 kts 122°
2026-05-08 02:45 21.19025 -157.81434 8558 ft 291 kts 122°
2026-05-08 02:45 21.17985 -157.79539 9347 ft 298 kts 122°
2026-05-08 02:46 21.16947 -157.77581 10116 ft 305 kts 121°
2026-05-08 02:46 21.15886 -157.75526 10554 ft 324 kts 120°
2026-05-08 02:46 21.14790 -157.73368 10901 ft 342 kts 119°
2026-05-08 02:46 21.13644 -157.71084 11490 ft 351 kts 119°
2026-05-08 02:47 21.12477 -157.68748 12105 ft 359 kts 120°
2026-05-08 02:47 21.11293 -157.66376 12872 ft 362 kts 119°
2026-05-08 02:47 21.10106 -157.63995 13682 ft 363 kts 119°
2026-05-08 02:47 21.08907 -157.61588 14308 ft 369 kts 120°
2026-05-08 02:48 21.07686 -157.59142 14941 ft 373 kts 119°
2026-05-08 02:48 21.06460 -157.56685 15652 ft 375 kts 120°
2026-05-08 02:48 21.05217 -157.54197 16258 ft 381 kts 119°
2026-05-08 02:48 21.03984 -157.51730 16750 ft 382 kts 118°
2026-05-08 02:49 21.02735 -157.49229 16953 ft 378 kts 119°
2026-05-08 02:49 21.01492 -157.46741 16980 ft 385 kts 119°
2026-05-08 02:49 21.00206 -157.44173 16972 ft 396 kts 119°
2026-05-08 02:49 20.99339 -157.42441 16972 ft 399 kts 119°
2026-05-08 02:50 20.98024 -157.39815 16971 ft 400 kts 119°
2026-05-08 02:50 20.96709 -157.37190 16971 ft 399 kts 119°
2026-05-08 02:50 20.95394 -157.34564 16971 ft 399 kts 119°
2026-05-08 02:50 20.94081 -157.31944 16970 ft 400 kts 118°
2026-05-08 02:51 20.92764 -157.29320 16968 ft 399 kts 119°
2026-05-08 02:51 20.91452 -157.26705 16969 ft 398 kts 118°
2026-05-08 02:51 20.90159 -157.24130 16969 ft 397 kts 119°
2026-05-08 02:51 20.88851 -157.21525 16971 ft 397 kts 119°
2026-05-08 02:52 20.87539 -157.18914 16968 ft 398 kts 119°
2026-05-08 02:52 20.86225 -157.16301 16971 ft 399 kts 119°
2026-05-08 02:52 20.84907 -157.13682 16965 ft 399 kts 119°
2026-05-08 02:52 20.83593 -157.11073 16965 ft 398 kts 119°
2026-05-08 02:53 20.82281 -157.08466 16965 ft 398 kts 119°
2026-05-08 02:53 20.80968 -157.05859 16967 ft 398 kts 119°
2026-05-08 02:53 20.79673 -157.03290 16966 ft 398 kts 119°
2026-05-08 02:53 20.78360 -157.00686 16972 ft 398 kts 119°
2026-05-08 02:54 20.77045 -156.98091 16971 ft 397 kts 120°
2026-05-08 02:54 20.75531 -156.95610 16970 ft 397 kts 127°
2026-05-08 02:54 20.73878 -156.93246 16966 ft 397 kts 128°
2026-05-08 02:54 20.72200 -156.90904 16970 ft 397 kts 128°
2026-05-08 02:55 20.70541 -156.88590 16973 ft 397 kts 128°
2026-05-08 02:55 20.67183 -156.83899 16966 ft 398 kts 128°
2026-05-08 02:55 20.65503 -156.81550 16970 ft 398 kts 128°
2026-05-08 02:56 20.63824 -156.79200 16967 ft 397 kts 128°
2026-05-08 02:56 20.62141 -156.76847 16970 ft 398 kts 128°
2026-05-08 02:56 20.60481 -156.74527 16978 ft 398 kts 128°
2026-05-08 02:56 20.58802 -156.72179 16978 ft 398 kts 128°
2026-05-08 02:57 20.57124 -156.69834 16978 ft 398 kts 128°
2026-05-08 02:57 20.55443 -156.67487 16978 ft 398 kts 128°
2026-05-08 02:57 20.53756 -156.65131 16978 ft 398 kts 128°
2026-05-08 02:57 20.52074 -156.62784 16976 ft 398 kts 128°
2026-05-08 02:58 20.50397 -156.60445 16978 ft 397 kts 128°
2026-05-08 02:58 20.48722 -156.58109 16822 ft 395 kts 128°
2026-05-08 02:58 20.47058 -156.55788 16388 ft 390 kts 128°
2026-05-08 02:58 20.45415 -156.53497 15809 ft 388 kts 129°
2026-05-08 02:59 20.43798 -156.51245 15264 ft 385 kts 128°
2026-05-08 02:59 20.42177 -156.48988 14731 ft 382 kts 129°
2026-05-08 02:59 20.40559 -156.46736 14061 ft 383 kts 129°
2026-05-08 02:59 20.38940 -156.44486 13398 ft 381 kts 128°
2026-05-08 03:00 20.37332 -156.42248 12774 ft 378 kts 129°
2026-05-08 03:00 20.35735 -156.40026 12251 ft 373 kts 129°
2026-05-08 03:00 20.34196 -156.37886 12225 ft 353 kts 129°
2026-05-08 03:00 20.32743 -156.35865 12218 ft 334 kts 128°
2026-05-08 03:01 20.31362 -156.33946 12206 ft 317 kts 128°
2026-05-08 03:01 20.30044 -156.32116 12008 ft 309 kts 129°
2026-05-08 03:01 20.28725 -156.30290 11653 ft 323 kts 129°
2026-05-08 03:01 20.27330 -156.28358 11237 ft 332 kts 129°
2026-05-08 03:02 20.25920 -156.26404 10828 ft 332 kts 129°
2026-05-08 03:02 20.24514 -156.24454 10378 ft 330 kts 129°
2026-05-08 03:02 20.23122 -156.22524 9973 ft 327 kts 129°
2026-05-08 03:02 20.21738 -156.20605 9524 ft 325 kts 129°
2026-05-08 03:03 20.20361 -156.18700 9067 ft 323 kts 129°
2026-05-08 03:03 20.18998 -156.16813 8619 ft 320 kts 128°
2026-05-08 03:03 20.17646 -156.14942 8179 ft 318 kts 128°
2026-05-08 03:03 20.16319 -156.13107 7763 ft 315 kts 128°
2026-05-08 03:04 20.14988 -156.11265 7304 ft 312 kts 128°
2026-05-08 03:04 20.13668 -156.09440 6890 ft 310 kts 128°
2026-05-08 03:04 20.12354 -156.07624 6477 ft 308 kts 127°
2026-05-08 03:04 20.11051 -156.05824 6027 ft 305 kts 127°
2026-05-08 03:05 20.09606 -156.04186 5581 ft 304 kts 143°
2026-05-08 03:05 20.07701 -156.03335 5145 ft 303 kts 171°
2026-05-08 03:05 20.05600 -156.03156 4722 ft 303 kts 178°
2026-05-08 03:05 20.03497 -156.03116 4257 ft 302 kts 179°
2026-05-08 03:06 20.01402 -156.03085 3823 ft 300 kts 178°
2026-05-08 03:06 19.99316 -156.03046 3393 ft 298 kts 177°
2026-05-08 03:06 19.97248 -156.03000 3048 ft 293 kts 176°
2026-05-08 03:06 19.95257 -156.02953 2960 ft 278 kts 177°
2026-05-08 03:07 19.93381 -156.02911 2950 ft 262 kts 177°
2026-05-08 03:07 19.91603 -156.02960 2956 ft 258 kts 180°
2026-05-08 03:07 19.89819 -156.03123 2872 ft 255 kts 184°
2026-05-08 03:07 19.88085 -156.03302 2552 ft 244 kts 181°
2026-05-08 03:08 19.86421 -156.03446 2200 ft 236 kts 179°
2026-05-08 03:08 19.84808 -156.03588 1899 ft 228 kts 181°
2026-05-08 03:08 19.83263 -156.03728 1613 ft 217 kts 181°
2026-05-08 03:08 19.81793 -156.03860 1317 ft 207 kts 180°
2026-05-08 03:09 19.80395 -156.03984 1044 ft 196 kts 180°
2026-05-08 03:09 19.79086 -156.04102 800 ft 181 kts 181°
2026-05-08 03:09 19.77905 -156.04206 588 ft 164 kts 183°
2026-05-08 03:09 19.76828 -156.04302 381 ft 149 kts 184°
2026-05-08 03:10 19.75837 -156.04392 165 ft 136 kts 185°
2026-05-08 03:10 19.74943 -156.04474 49 ft 120 kts 185°
2026-05-08 03:10 19.74326 -156.04528 49 ft 65 kts 185°
2026-05-08 03:10 19.73916 -156.04566 49 ft 52 kts 185°
2026-05-08 03:11 19.73709 -156.04586 49 ft 15 kts 185°
2026-05-08 03:11 19.73629 -156.04574 49 ft 12 kts 144°
2026-05-08 03:11 19.73606 -156.04497 49 ft 12 kts 95°
2026-05-08 03:11 19.73598 -156.04399 46 ft 11 kts 95°
2026-05-08 03:12 19.73597 -156.04389 48 ft 0 kts 95°
2026-05-08 03:12 19.73596 -156.04378 48 ft 5 kts 95°
2026-05-08 03:12 19.73574 -156.04348 49 ft 6 kts 143°
2026-05-08 03:12 19.73547 -156.04317 49 ft 5 kts 114°
2026-05-08 03:13 19.73545 -156.04280 51 ft 4 kts 93°
2026-05-08 03:13 19.73543 -156.04254 52 ft 3 kts 94°
2026-05-08 03:13 19.73542 -156.04244 50 ft 0 kts 95°
2026-05-08 03:13 19.73542 -156.04242 50 ft 0 kts 95°
2026-05-08 03:14 19.73542 -156.04241 50 ft 0 kts 95°